Weather History for Newport Airport, OR

Change the Weather History Date:

Thursday, May 3, 2012

  Actual Average Record
Temperature  
Mean Temperature 48 °F -  
Max Temperature 51 °F 54 °F 60 °F (2001)
Min Temperature 44 °F 44 °F 35 °F (2006)
Degree Days  
Heating Degree Days 18    
Moisture  
Dew Point 46 °F    
Average Humidity 90    
Maximum Humidity 100    
Minimum Humidity 76    
Precipitation  
Precipitation 0.63 in - - ()
Sea Level Pressure  
Sea Level Pressure 29.80 in    
Wind  
Wind Speed 11 mph (SW)    
Max Wind Speed 28 mph    
Max Gust Speed 39 mph    
Visibility 7 miles    
Events Rain    
Averages and records for this station are not official NWS values.
T = Trace of Precipitation, MM = Missing Value Source: NWS Daily Summary

Daily Weather History Graph

Daily Weather History Graph

Search for Another Location

Airport:

Trip Planner

Search our weather history database for the weather conditions in past years. The results will help you decide how hot, cold, wet, or windy it might be!

Date:

Astronomy

May. 03, 2012 Rise Set
Actual Time 6:02 AM PDT 8:24 PM PDT
Civil Twilight 5:30 AM PDT 8:56 PM PDT
Nautical Twilight 4:50 AM PDT 9:37 PM PDT
Astronomical Twilight 4:05 AM PDT 10:22 PM PDT
Moon 5:50 PM PDT (5/3) 4:16 AM PDT (5/3)
Length of Visible Light 15h 26m
Length of Day
14h 21m
Waxing Gibbous, 92% of the Moon is Illuminated
May 3
Waxing Gibbous
May 5
Full
May 12
Last Quarter
May 20
New
May 28
First Quarter

Hourly Weather History & Observations

Time (PDT) Temp. Windchill Dew Point Humidity Pressure Visibility Wind Dir Wind Speed Gust Speed Precip Events Conditions
12:15 AM 44.6 °F 42.2 °F 44.6 °F 100% 29.72 in 7.0 mi SE 4.6 mph - 0.01 in Rain Light Rain
12:35 AM 46.4 °F 42.9 °F 44.6 °F 93% 29.70 in 7.0 mi SE 6.9 mph - 0.04 in Rain Rain
12:55 AM 46.4 °F 43.5 °F 44.6 °F 93% 29.70 in 7.0 mi SE 5.8 mph - 0.08 in Rain Rain
1:15 AM 46.4 °F 45.2 °F 44.6 °F 93% 29.69 in 5.0 mi SSE 3.5 mph - 0.04 in Rain Rain
1:35 AM 46.4 °F 42.4 °F 44.6 °F 93% 29.69 in 7.0 mi SSE 8.1 mph - 0.09 in Rain Rain
1:55 AM 46.4 °F 42.9 °F 44.6 °F 93% 29.68 in 7.0 mi SE 6.9 mph - 0.14 in Rain Rain
2:15 AM 46.4 °F 42.9 °F 44.6 °F 93% 29.66 in 7.0 mi SE 6.9 mph - 0.04 in Rain Rain
2:35 AM 46.4 °F 42.9 °F 44.6 °F 93% 29.64 in 7.0 mi SE 6.9 mph - 0.08 in Rain Rain
2:55 AM 46.4 °F 42.9 °F 44.6 °F 93% 29.63 in 10.0 mi SE 6.9 mph - 0.11 in Rain Rain
3:15 AM 46.4 °F 41.9 °F 44.6 °F 93% 29.61 in 7.0 mi ESE 9.2 mph - 0.03 in Rain Rain
3:35 AM 48.2 °F - 46.4 °F 93% 29.59 in 7.0 mi ESE 8.1 mph - 0.06 in Rain Rain
3:55 AM 48.2 °F - 46.4 °F 93% 29.59 in 7.0 mi SE 6.9 mph - 0.09 in Rain Light Rain
4:15 AM 48.2 °F - 46.4 °F 93% 29.59 in 10.0 mi SSE 9.2 mph 17.3 mph 0.01 in Rain Light Rain
4:35 AM 50.0 °F - 46.4 °F 87% 29.57 in 10.0 mi SSE 10.4 mph 18.4 mph 0.01 in Rain Light Rain
4:55 AM 48.2 °F - 46.4 °F 93% 29.57 in 10.0 mi SSE 8.1 mph 17.3 mph 0.02 in Rain Light Rain
5:15 AM 48.2 °F - 46.4 °F 93% 29.56 in 10.0 mi SSE 12.7 mph 17.3 mph N/A   Drizzle
5:35 AM 48.2 °F - 46.4 °F 93% 29.56 in 7.0 mi SSE 10.4 mph 17.3 mph N/A   Drizzle
5:55 AM 48.2 °F - 46.4 °F 93% 29.55 in 5.0 mi SSE 10.4 mph - 0.03 in Rain Rain
6:15 AM 48.2 °F - 46.4 °F 93% 29.55 in 7.0 mi SSE 9.2 mph 18.4 mph 0.02 in Rain Light Rain
6:35 AM 48.2 °F - 46.4 °F 93% 29.54 in 3.0 mi SSE 9.2 mph 17.3 mph 0.05 in Rain Light Rain
6:55 AM 50.0 °F - 46.4 °F 87% 29.55 in 3.0 mi South 19.6 mph 26.5 mph 0.07 in Rain Light Rain
7:15 AM 50.0 °F - 48.2 °F 94% 29.55 in 2.0 mi South 26.5 mph 34.5 mph 0.01 in Rain Rain
7:35 AM 50.0 °F - 50.0 °F 100% 29.56 in 1.5 mi SSW 27.6 mph 39.1 mph 0.02 in Rain Light Rain
7:55 AM 50.0 °F - 50.0 °F 100% 29.56 in 2.0 mi SSW 19.6 mph 32.2 mph 0.03 in Rain Light Rain
8:15 AM 50.0 °F - 50.0 °F 100% 29.57 in 2.0 mi SSW 21.9 mph 31.1 mph 0.02 in Rain Rain
8:35 AM 50.0 °F - 50.0 °F 100% 29.58 in 2.0 mi SSW 20.7 mph 32.2 mph 0.04 in Rain Rain
8:55 AM 50.0 °F - 50.0 °F 100% 29.59 in 1.2 mi SSW 23.0 mph 31.1 mph 0.04 in Rain Light Rain
9:35 AM 50.0 °F - 50.0 °F 100% 29.60 in 1.0 mi SSW 24.2 mph 32.2 mph N/A Rain Light Rain
9:55 AM 50.0 °F - 50.0 °F 100% 29.61 in 3.0 mi SSW 26.5 mph 35.7 mph N/A   Overcast
10:15 AM 51.8 °F - 50.0 °F 94% 29.62 in 4.0 mi SSW 27.6 mph 34.5 mph N/A   Overcast
10:35 AM 50.0 °F - 48.2 °F 94% 29.64 in 7.0 mi SSW 25.3 mph 34.5 mph N/A   Overcast
10:55 AM 50.0 °F - 46.4 °F 87% 29.66 in 7.0 mi SSW 23.0 mph 36.8 mph N/A   Overcast
11:15 AM 50.0 °F - 46.4 °F 87% 29.66 in 7.0 mi SSW 24.2 mph 33.4 mph N/A   Overcast
11:35 AM 50.0 °F - 48.2 °F 94% 29.67 in 1.8 mi SSW 27.6 mph 35.7 mph N/A Rain Light Rain
11:55 AM 50.0 °F - 48.2 °F 94% 29.70 in 1.5 mi WSW 20.7 mph 31.1 mph N/A   Overcast
12:15 PM 50.0 °F - 46.4 °F 87% 29.73 in 7.0 mi WSW 18.4 mph 29.9 mph N/A   Overcast
12:35 PM 50.0 °F - 46.4 °F 87% 29.75 in 5.0 mi WSW 19.6 mph 27.6 mph N/A   Overcast
12:55 PM 50.0 °F - 46.4 °F 87% 29.77 in 4.0 mi SW 17.3 mph 24.2 mph N/A   Overcast
1:15 PM 50.0 °F - 46.4 °F 87% 29.80 in 5.0 mi WSW 19.6 mph 26.5 mph N/A   Overcast
1:35 PM 50.0 °F - 46.4 °F 87% 29.82 in 3.0 mi West 16.1 mph 25.3 mph N/A   Overcast
1:55 PM 50.0 °F - 46.4 °F 87% 29.84 in 7.0 mi WSW 15.0 mph 25.3 mph N/A   Overcast
2:15 PM 50.0 °F - 46.4 °F 87% 29.86 in 5.0 mi WSW 15.0 mph 24.2 mph N/A   Overcast
2:35 PM 50.0 °F - 44.6 °F 82% 29.88 in 7.0 mi West 17.3 mph 24.2 mph N/A   Overcast
2:55 PM 51.8 °F - 46.4 °F 82% 29.89 in 10.0 mi West 17.3 mph 25.3 mph N/A   Overcast
3:15 PM 51.8 °F - 44.6 °F 76% 29.91 in 10.0 mi West 18.4 mph 24.2 mph N/A   Overcast
3:35 PM 51.8 °F - 44.6 °F 76% 29.92 in 10.0 mi West 16.1 mph 21.9 mph N/A   Overcast
3:55 PM 50.0 °F - 44.6 °F 82% 29.93 in 10.0 mi West 15.0 mph 21.9 mph N/A   Overcast
4:15 PM 51.8 °F - 46.4 °F 82% 29.95 in 7.0 mi West 16.1 mph 19.6 mph N/A   Overcast
4:35 PM 50.0 °F - 44.6 °F 82% 29.96 in 7.0 mi West 13.8 mph 23.0 mph N/A   Overcast
4:55 PM 50.0 °F - 44.6 °F 82% 29.97 in 7.0 mi WSW 11.5 mph 18.4 mph N/A   Overcast
5:15 PM 50.0 °F - 44.6 °F 82% 29.98 in 7.0 mi West 13.8 mph 17.3 mph N/A   Overcast
5:35 PM 50.0 °F - 44.6 °F 82% 29.99 in 7.0 mi West 11.5 mph 16.1 mph N/A   Overcast
5:55 PM 48.2 °F - 44.6 °F 87% 30.01 in 5.0 mi West 12.7 mph - N/A   Overcast
6:15 PM 46.4 °F 42.4 °F 44.6 °F 93% 30.01 in 4.0 mi West 8.1 mph - N/A Rain Light Rain
6:35 PM 46.4 °F 41.5 °F 44.6 °F 93% 30.02 in 10.0 mi West 10.4 mph - N/A   Overcast
6:55 PM 46.4 °F 41.5 °F 44.6 °F 93% 30.03 in 5.0 mi West 10.4 mph - N/A   Drizzle
7:15 PM 48.2 °F - 44.6 °F 87% 30.03 in 7.0 mi West 8.1 mph - N/A   Overcast
7:35 PM 46.4 °F 42.9 °F 44.6 °F 93% 30.04 in 10.0 mi WNW 6.9 mph - N/A   Overcast
7:55 PM 46.4 °F 41.9 °F 44.6 °F 93% 30.05 in 10.0 mi WNW 9.2 mph - N/A   Overcast
8:15 PM 46.4 °F 43.5 °F 42.8 °F 87% 30.05 in 7.0 mi West 5.8 mph - N/A   Overcast
8:35 PM 46.4 °F 43.5 °F 42.8 °F 87% 30.06 in 7.0 mi West 5.8 mph - N/A Rain Rain
8:55 PM 46.4 °F 42.9 °F 44.6 °F 93% 30.06 in 10.0 mi West 6.9 mph - N/A   Light Drizzle
9:15 PM 46.4 °F 44.3 °F 41.0 °F 81% 30.07 in 10.0 mi WNW 4.6 mph - N/A Rain Light Rain
9:35 PM 46.4 °F 45.2 °F 42.8 °F 87% 30.07 in 7.0 mi WSW 3.5 mph - 0.01 in   Mostly Cloudy
9:55 PM 46.4 °F 41.1 °F 42.8 °F 87% 30.08 in 10.0 mi West 11.5 mph - 0.01 in   Mostly Cloudy
10:15 PM 46.4 °F 43.5 °F 41.0 °F 81% 30.08 in 10.0 mi West 5.8 mph - N/A   Overcast
10:35 PM 46.4 °F 42.4 °F 41.0 °F 81% 30.08 in 10.0 mi WSW 8.1 mph - N/A   Overcast
10:55 PM 46.4 °F 43.5 °F 41.0 °F 81% 30.08 in 10.0 mi WSW 5.8 mph - N/A   Mostly Cloudy
11:15 PM 46.4 °F 42.9 °F 42.8 °F 87% 30.09 in 10.0 mi WSW 6.9 mph - N/A Rain Light Rain
11:35 PM 44.6 °F 39.7 °F 41.0 °F 87% 30.10 in 5.0 mi SSW 9.2 mph - 0.01 in Rain Light Rain
11:55 PM 44.6 °F 43.1 °F 41.0 °F 87% 30.10 in 10.0 mi SE 3.5 mph - 0.01 in   Overcast